CAPE
0 0 0 0 2 9 12 8 7 0 0 0 4 17 76 108 17 69 7 27 0 0 27 5 0 0 0 0 0 0 0 0 0 0 0 0 0 0 0 0 0 0 0 0
0 0 8 5 10 17 19 31 1 2 2 4 16 4 2 1 0 28 3 0 3 16 55 0 0 0 0 0 0 0 0 0 0 0 0 0 0 0 0 0 0 0 0 0
0 0 3 0 6 10 0 0 1 26 10 0 0 0 2 1 0 2 0 0 0 7 9 0 0 0 0 0 0 0 0 0 0 0 0 0 0 0 0 0 0 0 0 0
0 0 1 0 0 0 1 0 14 15 2 31 0 0 1 3 0 0 0 0 1 29 29 1 1 0 0 0 0 0 0 0 0 0 0 0 0 0 0 0 0 0 0 0
0 0 0 0 0 0 0 0 27 27 1 0 0 0 0 3 0 0 7 0 0 2 22 13 13 6 3 0 3 0 0 0 0 0 0 0 0 0 0 0 0 0 0 0
0 4 0 0 0 0 0 3 0 0 0 0 0 0 0 0 12 20 37 18 6 3 73 83 60 10 11 2 4 0 0 0 0 0 0 0 0 0 0 0 0 0 0 0
0 8 3 0 0 0 0 0 0 0 0 0 0 0 0 0 9 19 67 107 34 8 58 74 39 16 1 4 5 0 0 0 0 0 0 0 1 0 0 0 0 0 0 0
1 0 0 0 0 0 0 0 0 0 0 0 0 0 0 0 3 0 48 91 58 30 32 35 31 8 2 2 0 0 0 0 0 0 1 3 0 0 0 0 0 0 0 0
0 0 0 0 0 0 0 0 0 0 0 0 0 0 0 0 2 35 31 29 34 27 14 37 31 0 2 3 0 0 0 0 0 0 1 0 0 0 0 0 0 0 0 0
0 0 0 0 0 0 0 0 0 0 0 0 0 0 0 0 0 26 40 26 18 24 58 36 7 5 2 0 0 0 0 0 0 0 7 6 0 0 0 0 0 0 0 0
0 0 0 0 0 0 0 0 0 0 0 0 0 0 0 0 0 0 25 35 42 64 64 48 6 6 2 0 0 0 0 0 0 0 3 9 0 0 0 0 1 2 0 0
0 0 0 0 0 0 0 0 0 0 0 0 0 0 0 0 0 0 0 0 12 53 44 55 7 10 3 0 0 0 0 0 0 0 6 27 9 1 3 4 3 1 3 1
0 0 0 0 0 0 0 0 0 0 0 0 0 0 0 0 0 0 0 0 1 2 0 0 0 0 0 0 0 0 0 0 0 0 17 31 50 21 8 8 9 11 13 13
0 0 0 0 0 0 0 0 0 0 0 0 0 0 0 0 0 0 0 0 0 2 0 1 0 0 0 0 0 0 0 0 0 0 12 31 51 65 34 11 12 30 24 31
0 0 0 0 0 0 0 0 0 0 0 0 0 1 2 0 3 0 17 6 1 0 1 0 0 0 0 0 0 0 0 0 0 0 20 26 43 74 65 25 16 19 26 10
0 0 0 0 0 0 0 0 0 0 0 0 0 12 0 6 2 1 1 0 4 0 19 29 40 0 0 0 0 0 0 0 0 3 29 27 63 27 39 23 12 4 13 0
0 0 0 0 0 0 0 0 0 0 0 0 1 15 29 5 5 1 1 4 1 1 0 20 30 7 1 0 0 0 0 0 0 7 15 36 60 56 34 31 14 2 0 0
0 0 0 0 0 0 0 0 0 0 2 0 0 0 0 4 13 0 0 0 0 0 0 0 7 36 29 12 0 0 0 0 0 0 17 32 53 66 56 46 39 7 2 0
0 0 3 0 0 0 2 0 0 3 0 0 0 0 0 0 0 0 0 0 0 0 0 10 9 8 11 26 17 0 0 0 2 0 13 24 38 51 34 35 49 21 19 2
0 0 13 0 0 0 0 0 0 11 0 0 0 0 0 0 0 0 0 13 15 13 6 4 19 30 3 10 10 17 13 12 0 1 2 26 42 64 54 24 24 43 25 32
0 0 0 0 0 0 0 0 0 0 0 0 0 0 0 0 0 0 3 9 7 9 7 7 11 17 4 0 0 16 8 2 1 1 4 22 48 44 32 3 27 36 40 34
0 0 0 0 0 0 0 0 0 0 0 0 0 0 0 0 0 0 0 0 0 0 0 0 0 4 0 0 0 0 0 1 4 4 4 7 30 43 34 25 34 36 22 28
0 0 0 0 0 0 0 0 0 0 0 0 0 0 0 0 0 0 0 0 0 0 0 0 0 0 0 0 0 0 0 0 0 3 1 18 26 23 31 34 28 26 14 16
0 0 0 0 0 0 0 0 0 0 0 0 0 0 0 0 0 0 0 0 0 0 0 0 0 0 0 1 5 0 0 0 0 37 7 0 6 19 16 25 29 5 20 15
0 0 0 0 0 0 0 0 0 0 0 0 0 0 0 0 0 0 0 0 0 2 1 5 1 0 0 6 10 0 0 0 0 0 0 1 6 6 4 4 9 2 0 5
0 0 0 0 0 0 0 0 0 0 0 0 0 0 0 0 0 0 0 0 0 0 0 6 4 4 1 5 8 0 0 10 1 0 0 0 1 3 0 0 16 24 8 5
CIN
-0 -0 -0 -0 -21 -53 -62 -79 -105 -0 -0 -0 -227 -157 -83 -66 -110 -20 -0 -21 -0 -0 -68 -53 -0 -0 -0 -0 -0 -0 -0 -0 -0 -0 -0 -0 -0 -0 -0 -0 -0 -0 -0 -0
-0 -0 -63 -62 -83 -67 -56 -77 -81 -60 -260 -211 -167 -0 -2 -0 -0 -66 -2 -15 -41 -34 -35 -0 -0 -0 -0 -0 -0 -0 -0 -0 -0 -0 -0 -0 -0 -0 -0 -0 -0 -0 -0 -0
-0 -14 -43 -0 -79 -87 -0 -0 -24 -136 -117 -0 -0 -0 -4 -0 -17 -0 -0 -0 -0 -61 -15 -16 -0 -0 -0 -0 -0 -0 -0 -0 -0 -0 -0 -0 -0 -0 -0 -0 -0 -0 -0 -0
-0 -0 -29 -0 -0 -0 -7 -0 -157 -203 -116 -77 -0 -0 -3 -0 -0 -0 -0 -0 -28 -21 -42 -19 -21 -0 -0 -0 -0 -0 -0 -0 -0 -0 -0 -0 -0 -0 -0 -0 -0 -0 -0 -0
-0 -0 -4 -0 -0 -0 -0 -0 -169 -178 -8 -0 -0 -0 -0 -10 -0 -0 -30 -0 -0 -79 -41 -45 -82 -98 -87 -0 -132 -11 -0 -0 -0 -0 -0 -0 -0 -0 -0 -0 -0 -0 -0 -0
-27 -146 -9 -0 -0 -0 -0 -139 -0 -0 -0 -0 -0 -0 -0 -0 -18 -42 -37 -59 -87 -110 -76 -34 -54 -78 -86 -83 -162 -113 -0 -0 -0 -0 -0 -0 -0 -0 -0 -0 -0 -0 -0 -0
-0 -127 -99 -0 -0 -0 -0 -0 -0 -0 -0 -0 -0 -0 -0 -0 -52 -50 -36 -49 -67 -82 -49 -60 -60 -112 -97 -136 -157 -0 -0 -0 -0 -0 -0 -18 -48 -0 -0 -0 -0 -0 -0 -0
-22 -0 -0 -0 -0 -0 -0 -0 -0 -0 -0 -0 -0 -0 -0 -0 -30 -17 -50 -48 -50 -58 -65 -87 -72 -109 -138 -142 -0 -0 -0 -0 -0 -0 -16 -46 -0 -0 -0 -0 -0 -0 -0 -0
-0 -0 -0 -0 -0 -0 -0 -0 -0 -0 -0 -0 -0 -0 -0 -0 -32 -42 -45 -48 -36 -54 -70 -70 -99 -7 -123 -136 -0 -0 -0 -0 -0 -0 -36 -6 -0 -0 -0 -0 -0 -0 -0 -0
-0 -0 -0 -0 -0 -0 -0 -0 -0 -0 -0 -0 -0 -0 -0 -0 -0 -19 -29 -32 -47 -69 -61 -69 -70 -131 -43 -0 -0 -0 -0 -0 -0 -0 -52 -45 -0 -0 -0 -0 -0 -0 -0 -0
-0 -0 -0 -0 -0 -0 -0 -0 -0 -0 -0 -0 -0 -0 -0 -0 -0 -0 -17 -14 -19 -34 -29 -55 -102 -104 -74 -0 -0 -0 -0 -0 -0 -0 -56 -46 -0 -0 -0 -28 -32 -43 -0 -0
-0 -0 -0 -0 -0 -0 -0 -0 -0 -0 -0 -0 -0 -0 -0 -0 -0 -0 -0 -0 -17 -39 -41 -37 -57 -65 -101 -0 -0 -0 -0 -0 -0 -0 -55 -39 -53 -49 -45 -38 -45 -67 -35 -31
-0 -0 -0 -0 -0 -0 -0 -0 -0 -0 -0 -0 -0 -0 -0 -0 -0 -0 -0 -3 -26 -67 -0 -0 -0 -0 -0 -0 -0 -0 -0 -0 -0 -0 -43 -40 -34 -33 -37 -36 -47 -50 -43 -24
-0 -0 -0 -0 -0 -0 -0 -0 -0 -0 -0 -0 -0 -0 -0 -0 -0 -0 -0 -0 -0 -37 -1 -17 -0 -0 -0 -0 -0 -0 -0 -0 -0 -2 -38 -33 -29 -25 -31 -29 -44 -44 -44 -38
-0 -0 -0 -0 -0 -0 -0 -0 -0 -0 -0 -0 -0 -24 -58 -50 -37 -7 -12 -25 -16 -0 -33 -0 -0 -0 -0 -0 -0 -0 -0 -0 -0 -12 -34 -29 -34 -27 -30 -23 -37 -49 -39 -38
-0 -0 -0 -0 -0 -0 -0 -0 -0 -0 -0 -0 -9 -24 -0 -18 -15 -12 -19 -19 -14 -42 -37 -28 -60 -3 -0 -0 -0 -0 -0 -0 -0 -30 -25 -27 -23 -19 -23 -27 -34 -47 -35 -0
-0 -0 -0 -0 -0 -0 -0 -0 -0 -0 -0 -11 -0 -11 -7 -5 -5 -0 -5 -36 -18 -19 -24 -23 -35 -14 -17 -0 -0 -0 -0 -0 -0 -34 -24 -19 -30 -24 -16 -25 -30 -50 -0 -0
-0 -0 -0 -0 -0 -0 -0 -26 -0 -10 -0 -3 -0 -29 -0 -10 -14 -0 -0 -0 -0 -0 -0 -0 -55 -52 -55 -46 -15 -0 -0 -0 -0 -20 -37 -18 -23 -22 -28 -29 -28 -47 -58 -0
-0 -0 -26 -0 -0 -0 -0 -1 -0 -14 -0 -0 -0 -0 -0 -13 -0 -0 -0 -0 -0 -0 -0 -23 -18 -12 -32 -66 -47 -5 -0 -21 -62 -9 -31 -27 -23 -20 -22 -32 -29 -39 -53 -42
-0 -0 -26 -0 -0 -0 -0 -0 -0 -73 -1 -0 -0 -0 -0 -0 -0 -0 -0 -21 -13 -15 -16 -27 -31 -29 -42 -42 -52 -34 -46 -41 -12 -45 -32 -36 -29 -23 -21 -24 -39 -37 -45 -38
-0 -0 -0 -0 -0 -0 -0 -0 -0 -0 -0 -0 -0 -0 -0 -0 -0 -0 -30 -17 -28 -30 -23 -30 -39 -38 -40 -0 -0 -63 -43 -25 -42 -57 -31 -42 -32 -27 -32 -21 -40 -39 -35 -24
-0 -0 -0 -0 -0 -0 -0 -0 -0 -0 -0 -0 -0 -0 -0 -0 -0 -0 -0 -0 -0 -0 -0 -0 -0 -44 -15 -0 -0 -0 -0 -12 -58 -50 -41 -48 -40 -29 -29 -29 -40 -45 -57 -38
-0 -0 -0 -0 -0 -0 -0 -0 -0 -0 -0 -0 -0 -0 -0 -0 -0 -0 -0 -0 -0 -0 -0 -0 -0 -0 -0 -0 -0 -0 -0 -0 -0 -40 -12 -31 -49 -49 -30 -31 -46 -37 -48 -41
-0 -0 -0 -0 -0 -0 -0 -0 -0 -0 -0 -0 -0 -0 -0 -0 -0 -0 -11 -0 -0 -0 -0 -0 -0 -0 -0 -14 -27 -0 -0 -0 -0 -3 -14 -30 -44 -47 -63 -40 -36 -42 -42 -37
-0 -0 -0 -0 -0 -0 -0 -0 -0 -0 -0 -0 -0 -0 -0 -0 -0 -0 -0 -0 -0 -29 -34 -38 -11 -0 -3 -37 -23 -0 -0 -0 -0 -0 -0 -12 -27 -5 -50 -64 -43 -30 -0 -37
-0 -0 -0 -0 -0 -0 -0 -0 -0 -0 -0 -0 -0 -0 -0 -0 -0 -0 -0 -0 -0 -0 -0 -46 -39 -42 -40 -41 -32 -0 -0 -24 -3 -0 -0 -0 -6 -13 -4 -8 -39 -37 -57 -65
Wind_Speed
16 13 18 16 12 12 13 16 19 17 13 20 21 20 19 16 17 10 7 5 9 9 13 12 10 10 11 14 21 27 29 29 30 29 27 26 28 27 25 24 25 24 24 25
18 13 15 18 14 13 15 17 19 20 17 17 18 23 24 22 23 19 8 6 11 7 9 9 7 8 10 17 22 25 26 27 28 27 25 24 25 22 22 23 24 22 24 24
17 15 17 18 16 15 15 19 14 15 19 20 18 24 22 18 18 17 14 11 14 10 9 7 4 6 12 18 19 21 23 24 25 25 25 25 23 23 23 25 25 25 23 23
16 17 15 20 20 16 17 18 16 14 16 20 16 20 20 17 18 15 13 11 13 11 8 7 4 4 10 13 16 17 20 22 23 23 22 22 23 25 22 22 21 23 22 24
16 17 19 22 25 20 18 17 14 14 19 19 22 19 18 17 16 13 11 9 12 9 8 6 4 3 10 10 10 15 18 19 18 18 17 19 21 22 23 22 23 23 22 24
16 18 19 18 21 18 19 21 18 18 19 21 21 19 19 18 17 16 10 5 5 9 7 7 5 11 9 11 13 14 15 16 15 16 16 17 19 22 26 24 22 20 19 20
18 23 17 20 20 19 15 15 15 13 20 18 21 20 18 17 17 17 14 10 7 11 8 9 6 6 8 10 12 13 13 14 14 16 16 18 19 19 19 17 19 14 17 18
21 24 22 27 22 16 18 17 16 19 19 17 19 18 17 15 17 19 18 14 10 9 10 8 6 6 9 10 11 12 13 13 13 15 16 20 20 16 13 12 13 12 12 12
19 21 17 26 26 20 17 20 16 18 18 18 16 16 16 21 15 18 20 17 14 11 8 6 9 7 8 9 11 12 13 13 14 14 17 20 20 17 13 10 12 10 9 10
18 17 25 21 23 26 21 18 17 19 19 20 17 17 17 21 20 18 18 18 15 11 10 8 7 10 10 11 11 12 13 14 11 13 16 18 17 17 17 16 13 12 11 12
19 18 22 19 24 25 23 20 20 18 18 18 18 18 17 18 20 21 20 19 15 11 8 7 9 9 11 12 11 12 12 13 10 12 14 16 16 16 16 15 12 14 13 11
20 17 18 18 22 23 23 21 19 19 19 20 19 20 19 17 19 20 20 20 17 16 15 12 11 10 11 12 12 11 11 12 9 11 12 12 12 13 12 11 7 10 12 10
15 16 15 16 18 26 25 23 22 21 20 21 21 20 26 25 23 27 26 26 24 23 21 18 15 13 12 12 12 10 10 10 9 10 11 11 9 8 7 7 7 7 7 9
19 17 16 17 17 19 23 24 23 22 22 21 22 22 29 32 29 30 32 30 26 22 27 24 18 15 11 12 12 10 10 10 7 9 10 9 8 5 5 5 6 8 7 8
18 19 19 20 19 22 23 24 25 24 20 24 21 23 29 30 30 31 26 32 32 31 32 30 29 23 21 14 12 10 11 11 9 7 9 9 11 10 4 5 6 10 8 9
17 17 17 19 18 21 23 23 24 25 25 23 23 24 25 27 27 31 31 34 35 39 38 37 37 33 26 16 11 10 10 10 12 6 9 13 17 21 9 6 8 13 11 12
16 14 15 16 15 17 22 23 23 23 24 23 26 27 25 28 28 29 31 34 36 39 39 37 38 37 36 30 29 25 21 11 13 8 6 10 13 18 13 11 10 16 15 15
14 16 17 16 17 20 15 18 21 24 24 25 25 27 27 28 24 28 30 32 35 36 37 36 37 39 37 33 29 25 10 5 9 7 6 8 13 17 21 15 13 21 16 17
16 16 18 17 19 18 13 16 20 20 24 24 24 25 28 26 28 27 29 29 31 33 32 33 34 36 37 37 34 26 16 12 13 5 11 10 11 17 18 17 12 19 21 18
21 19 17 16 19 19 18 18 23 14 22 23 22 25 26 27 32 27 25 27 27 29 28 31 30 34 37 37 36 34 27 14 17 8 19 20 18 15 17 20 25 21 24 22
20 21 19 17 19 18 20 21 19 22 22 21 20 22 24 27 21 20 22 25 25 26 24 26 28 31 34 37 36 34 33 30 19 24 7 17 23 19 17 20 26 28 25 24
18 18 19 19 20 20 20 20 22 18 18 19 19 19 20 19 19 21 21 23 25 26 26 24 26 27 30 36 36 34 33 33 32 31 25 16 22 27 25 22 28 25 24 26
17 16 18 18 18 15 19 20 18 17 20 19 19 17 16 20 23 22 22 22 23 24 24 23 24 24 30 30 35 35 34 33 31 30 27 26 28 29 31 21 23 25 27 27
16 16 17 19 15 16 16 15 16 16 17 17 18 17 18 19 20 20 20 21 23 23 25 21 23 26 24 29 31 32 34 33 32 28 27 27 28 29 28 28 24 22 26 28
15 16 17 18 15 15 15 14 14 14 15 16 17 18 18 19 19 18 20 23 23 22 25 23 24 26 28 26 26 33 33 33 32 30 28 29 26 27 28 28 28 28 25 28
15 15 16 17 14 16 16 15 13 13 16 16 20 24 26 26 25 24 26 28 29 30 32 28 28 29 32 32 29 32 33 31 31 31 30 29 27 27 26 26 27 25 28 26
Wind_Direction
37 46 18 45 69 61 37 21 2 15 45 23 19 16 10 14 5 22 69 38 76 110 133 127 95 60 36 23 9 2 1 4 2 1 1 360 356 357 0 2 358 359 358 358
29 52 50 35 51 46 33 14 12 21 33 29 29 17 14 19 30 58 65 49 23 86 123 121 97 48 29 11 6 6 5 4 5 7 6 4 2 4 2 0 358 2 359 359
32 56 35 37 37 38 39 26 33 25 31 40 32 15 21 39 43 40 50 61 37 70 108 117 100 29 4 358 6 7 8 10 11 9 5 4 4 1 2 355 354 358 0 1
18 14 48 40 39 39 20 27 39 59 33 18 30 17 27 34 29 50 74 55 39 39 74 107 85 33 3 4 8 11 11 9 10 8 10 11 9 4 5 2 5 2 6 2
24 21 22 17 10 23 23 23 60 53 34 33 23 24 27 33 36 47 39 60 39 51 81 93 57 44 7 10 13 15 11 11 15 17 20 18 12 11 8 6 5 6 10 7
25 24 24 30 18 33 36 37 42 33 27 19 19 18 16 21 24 30 49 72 59 45 79 38 33 12 16 15 16 17 15 13 19 20 20 17 11 7 360 7 11 16 20 18
12 10 27 22 16 23 37 25 18 19 11 15 17 16 21 25 28 28 29 38 52 27 33 21 58 21 14 21 20 19 17 14 20 18 18 13 11 10 13 22 22 31 28 30
351 344 8 0 9 19 23 21 16 3 7 17 20 21 23 28 18 16 23 24 27 26 22 37 39 27 19 20 21 18 16 16 19 19 19 15 13 21 29 35 34 40 42 46
2 357 15 355 10 23 16 7 21 15 22 18 26 27 31 17 20 18 13 16 15 15 31 25 16 15 20 19 18 18 17 18 22 25 18 15 17 26 39 49 39 51 57 65
358 356 344 358 5 9 17 17 9 13 8 7 20 20 14 11 12 12 10 6 4 8 5 11 19 17 14 10 16 19 19 17 28 25 25 23 29 34 41 48 53 57 72 79
359 359 353 7 5 2 6 8 10 23 16 11 9 11 17 14 13 9 7 5 7 8 6 7 7 5 5 5 11 14 15 14 27 24 26 26 34 39 43 52 69 69 80 89
0 16 13 21 14 20 24 23 19 9 11 14 14 9 9 13 10 9 8 6 4 1 2 8 3 2 357 357 2 7 15 15 24 24 27 31 43 43 46 57 106 84 80 93
18 19 11 5 10 8 14 15 25 27 19 10 6 7 3 0 360 356 355 357 2 356 3 6 357 354 352 353 354 1 7 14 21 25 29 30 42 54 71 72 103 136 124 103
19 20 16 12 17 21 15 16 18 17 11 14 10 7 358 356 358 359 355 359 1 1 352 354 352 346 347 345 348 353 359 7 13 18 20 29 35 66 95 98 108 155 147 163
32 28 29 29 35 27 23 20 18 21 19 7 13 8 3 0 2 358 359 354 349 353 353 354 348 354 348 342 345 346 352 358 2 7 5 17 16 21 102 97 124 180 155 159
30 26 41 25 29 27 21 21 21 16 17 18 12 7 7 4 1 355 350 348 344 341 345 344 335 329 327 339 337 337 343 350 353 1 0 360 354 340 47 98 142 207 173 195
20 37 20 15 18 14 5 16 18 18 14 9 2 3 3 1 1 359 355 353 349 345 343 343 337 330 325 321 327 325 323 342 347 356 356 356 355 341 0 23 33 220 201 208
33 20 14 11 12 359 17 28 25 16 13 14 11 7 6 3 6 3 3 358 356 355 354 350 341 329 324 325 320 319 316 282 334 347 348 354 345 336 322 344 3 267 221 211
25 23 12 11 6 16 20 13 5 3 6 11 8 7 4 6 6 6 6 8 7 6 7 3 356 345 332 319 319 328 333 325 330 322 339 336 341 330 321 322 351 239 259 232
11 15 12 11 5 3 14 11 5 27 358 11 11 8 9 10 2 9 11 9 10 10 11 7 7 359 344 330 321 313 322 324 318 329 331 319 319 323 321 307 286 301 265 255
9 10 13 16 9 14 12 10 20 5 2 12 15 16 16 11 18 15 16 15 14 11 12 10 10 9 359 340 330 318 309 305 314 319 328 316 307 312 313 304 283 268 279 271
15 16 16 16 10 7 19 20 15 22 22 21 22 23 22 23 19 17 18 15 15 15 15 18 14 13 11 355 342 334 323 305 298 302 310 328 313 294 299 298 282 283 285 276
17 28 19 19 18 36 31 36 40 38 29 28 26 27 27 16 16 17 16 15 15 15 17 19 19 17 10 10 356 338 328 325 313 303 302 304 301 294 280 297 293 285 280 281
28 31 25 21 31 35 36 38 37 37 32 32 28 27 23 17 14 12 11 9 8 9 10 15 16 16 17 9 1 354 343 331 327 319 310 305 302 299 291 284 290 292 284 278
27 28 27 24 32 31 31 31 32 34 29 28 25 21 15 10 6 4 4 4 2 2 3 3 6 6 6 9 9 344 344 342 332 322 314 310 299 303 296 290 284 282 287 283
30 30 25 20 37 29 33 35 39 32 23 22 16 9 10 9 7 7 5 5 3 0 358 359 358 358 355 356 358 352 342 342 337 325 318 317 299 308 304 300 288 286 284 283